Overview Statistics Trail Chart Weather Telemetry Raw packets
 

This is the latest recevied weather packets stored in our database for station/object KQ4WWD. If no packets are shown the sender has not sent any weather packets the latest 10 day(s).

<< 21 22 23 24 25 26 27 >>
Time Temp. Humidity Pressure Rain* Wind** Luminosity Snow
1788468428 32.22° C 75% 1012.4 hPa 0 mm - 435 W/m² -
1788468124 32.22° C 75% 1012.4 hPa 0 mm - 255 W/m² -
1788467819 32.78° C 75% 1012.3 hPa 0 mm - 399 W/m² -
1788467514 32.78° C 73% 1012.4 hPa 0 mm - 439 W/m² -
1788467208 32.78° C 73% 1012.4 hPa 0 mm - 273 W/m² -
1788466904 32.78° C 74% 1012.4 hPa 0 mm - 508 W/m² -
1788466604 32.22° C 75% 1012.5 hPa 0 mm - 577 W/m² -
1788466304 32.78° C 75% 1012.7 hPa 0 mm - 652 W/m² -
1788465998 31.67° C 75% 1012.9 hPa 0 mm - 606 W/m² -
1788465694 31.11° C 77% 1013 hPa 0 mm - 451 W/m² -
1788465390 31.11° C 77% 1012.9 hPa 0 mm - 269 W/m² -
1788465085 30.56° C 79% 1012.8 hPa 0 mm - 206 W/m² -
1788464781 31.11° C 79% 1013.1 hPa 0 mm - 203 W/m² -
1788464480 31.11° C 79% 1013 hPa 0 mm - 198 W/m² -
1788464176 31.11° C 77% 1013 hPa 0 mm - 196 W/m² -
1788463872 31.11° C 76% 1013 hPa 0 mm - 200 W/m² -
1788463569 31.11° C 76% 1013.2 hPa 0 mm - 204 W/m² -
1788463269 31.67° C 74% 1013.3 hPa 0 mm - 206 W/m² -
1788462965 31.11° C 75% 1013.5 hPa 0 mm - 215 W/m² -
1788462660 31.67° C 76% 1013.5 hPa 0 mm - 204 W/m² -
1788462359 31.67° C 75% 1013.5 hPa 0 mm - 203 W/m² -
1788462059 31.11° C 77% 1013.3 hPa 0 mm - 210 W/m² -
1788461754 30.56° C 79% 1013.5 hPa 0 mm - 214 W/m² -
1788461450 31.11° C 80% 1013.6 hPa 0 mm - 181 W/m² -
1788461146 30.56° C 80% 1013.4 hPa 0 mm - 174 W/m² -

* Rain latest hour (hover to see other rain measurements)
** Current wind speed in m/s (hover to see current wind gust speed)